Terminal Aerodrome Forecast
Issued by NWS Sterling, VA

Current Version | Previous Version | Text Only | Print | Product List | Glossary On
Versions: 1 2 3 4 5 6 7 8 9 10 11 12 13 14 15 16 17 18 19 20 21 22 23 24 25 26
000
FTUS41 KLWX 231100
TAFIAD
TAF
KIAD 231135Z 2312/2418 VRB03KT P6SM SCT250
     FM231800 18006KT P6SM BKN120
     FM232300 16006KT 6SM -FZRAPL SCT025 OVC045
     FM240200 13004KT 3SM -FZRASNPL BR BKN012 OVC025
     FM240800 03004KT 2SM -FZRA BR SCT003 OVC008
     FM241200 35008KT 4SM -FZRAPL BR SCT004 OVC007
     FM241400 34008KT P6SM SCT004 OVC009
     FM241600 32009G17KT P6SM SCT008 OVC015=

USA.gov is the U.S. government's official web portal to all federal, state and local government web resources and services.